Regional Weather Roundup
Issued by NWS

Home | Current Version | Previous Version | Text Only | Print | Product List | Glossary On
Versions: 1 2 3 4 5 6 7 8 9 10 11 12 13 14 15 16 17 18 19 20 21 22 23 24 25 26 27 28 29 30 31 32 33 34 35 36 37 38 39 40 41 42 43 44 45 46 47 48 49 50
000
ASUS44 KJAN 291810
RWRMS

MISSISSIPPI HOURLY WEATHER ROUNDUP
NATIONAL WEATHER SERVICE JACKSON MS
100 PM CDT FRI APR 29 2016

NOTE: "FAIR: INDICATES FEW OR NO CLOUDS BELOW 12,000 FEET WITH NO
SIGNIFICANT WEATHER AND/OR OBSTRUCTIONS TO VISIBILITY.

MSZ001>002-007>008-010>013-018>021-025>028-034>036-291900-
NORTHWEST MISSISSIPPI

CITY           SKY/WX    TMP DP  RH WIND       PRES   REMARKS
BATESVILLE     TSTM      70  66  88 W8G29     29.96R
CLEVELAND      TSTM      69  69 100 W10       29.94R
GREENWOOD      CLOUDY    79  68  69 S12       29.88R
6HR MIN TEMP:  68; 6HR MAX TEMP:  80;

GREENVILLE     TSTM      73  70  90 SE13      29.88F FOG
6HR MIN TEMP:  71; 6HR MAX TEMP:  77; 6HR PCP:  0.27;

OLIVE BRANCH   TSTM      61  61 100 W12G25    30.05R FOG
OXFORD         FAIR      72  66  83 SE9       29.90R
TUNICA         LGT RAIN  61  59  94 NE17      29.94F
WINONA         FAIR      79  70  73 S7        29.88S
$$

MSZ003>006-009-014>017-022>024-029>033-037>039-291900-
NORTHEAST MISSISSIPPI

CITY           SKY/WX    TMP DP  RH WIND       PRES   REMARKS
COLUMBUS AFB   CLOUDY    83  69  61 SE15      29.89F
6HR MIN TEMP:  64; 6HR MAX TEMP:  83;

CORINTH        FAIR      72  61  68 NW7       29.94S
GOLDN TRIANGLE PTSUNNY   82  64  54 S18G25    29.90F
TUPELO         CLOUDY    78  64  61 SE9       29.89F
6HR MIN TEMP:  63; 6HR MAX TEMP:  79;

$$

MSZ040-058-291900-
CENTRAL MISSISSIPPI

CITY           SKY/WX    TMP DP  RH WIND       PRES   REMARKS
JACKSON INTL   CLOUDY    84  68  58 S17G24    29.89S
6HR MIN TEMP:  71; 6HR MAX TEMP:  84;

JACKSON HAWKNS CLOUDY    82  69  64 S15       29.89S
6HR MIN TEMP:  72; 6HR MAX TEMP:  83;

MADISON        FAIR      81  68  65 SE7       29.90R
MERIDIAN KEY   CLOUDY    85  68  56 S14G21    29.90F
6HR MIN TEMP:  65; 6HR MAX TEMP:  85;

MERIDIAN NAS   CLOUDY    84  68  58 S10G17    29.91F
6HR MIN TEMP:  66; 6HR MAX TEMP:  84;

VICKSBURG TVR  CLOUDY    80  69  69 S12       29.89R
6HR MIN TEMP:  75; 6HR MAX TEMP:  81;

VICKSBURG VKS  PTCLDY    81  68  65 S8G18     29.88R
$$

MSZ059>079-291900-
SOUTH MISSISSIPPI

CITY           SKY/WX    TMP DP  RH WIND       PRES   REMARKS
BROOKHAVEN     FAIR     N/A N/A N/A SE14      29.90F
COLUMBIA       MOCLDY    84  68  58 S21G28    29.93F
HATTIESBURG    CLOUDY    86  68  54 S16G26    29.91F
6HR MIN TEMP:  67; 6HR MAX TEMP:  86;

MCCOMB         MOSUNNY   84  71  65 S17G25    29.89F
6HR MIN TEMP:  68; 6HR MAX TEMP:  84;

NATCHEZ        CLOUDY    84  70  61 S17G23    29.85S
6HR MIN TEMP:  72; 6HR MAX TEMP:  84;

PINE BELT      PTSUNNY   84  70  61 S20       29.92F
6HR MIN TEMP:  66; 6HR MAX TEMP:  84;

$$

MSZ080>082-291900-
COASTAL MISSISSIPPI

CITY           SKY/WX    TMP DP  RH WIND       PRES   REMARKS
BILOXI         PTSUNNY   81  77  89 S10       29.93F
PASCAGOULA     SUNNY     83  70  64 SE16      29.94F
6HR MIN TEMP:  66; 6HR MAX TEMP:  84;

GULFPORT       PTSUNNY   80  73  79 S13G20    29.93F
6HR MIN TEMP:  73; 6HR MAX TEMP:  81;

$$




USA.gov is the U.S. government's official web portal to all federal, state and local government web resources and services.